[[{"header":{"parameterUnit":"m.s-1","parameterCategory":1,"la1":30.2991,"la2":30.254,"lo1":-89.0895,"lo2":-89.0444,"dy":0.0017,"dx":0.0017,"nx":28,"ny":28,"refTime":"2025-01-21T09:00:00:Z","depth":0,"parameterNumber":2,"parameterNumberName":"U-component_of_WINDS"},"data":[0,0,0,0,0,0,0,0,0,0,0,0,0,0,0,0,0,0,0,0,0,0,0,0,0,0,0,0,0,0,0,0,0,0,0,0,0,0,0,0,0,0,0,0,0,0,0,0,0,0,0,0,0,0,0,0,0,0,-0.299,-0.2991,0,-0.3057,-0.3058,-0.3059,-0.3087,-0.3087,-0.3087,-0.3087,-0.3158,-0.316,-0.3162,0,0,0,0,0,0,0,0,0,0,0,0,0,-0.2888,-0.289,-0.299,-0.2991,-0.2992,-0.3057,-0.3058,-0.3059,-0.3087,-0.3087,-0.3087,-0.3087,-0.3157,-0.316,-0.3162,0,0,0,0,0,0,0,0,0,0,0,0,0,-0.2942,-0.289,-0.299,-0.3014,-0.3017,-0.3057,-0.3058,-0.3059,-0.3087,-0.3087,-0.3087,-0.3087,-0.3157,-0.316,-0.3163,-0.3185,0,0,-0.3172,-0.3173,0,0,0,0,0,0,0,0,-0.2939,-0.2945,-0.3009,-0.3012,-0.3015,-0.3064,-0.3048,-0.3102,-0.3087,-0.3061,-0.3087,-0.3087,-0.3127,-0.3132,-0.3146,-0.3189,-0.3192,-0.3172,-0.3174,-0.3175,-0.3176,0,0,0,0,0,0,0,-0.2935,-0.2943,-0.3017,-0.301,-0.3014,-0.3022,-0.3029,-0.3059,-0.3094,-0.3063,-0.3065,-0.3073,-0.3129,-0.3143,-0.3147,-0.3193,-0.3172,-0.3175,-0.3177,-0.3178,-0.3257,-0.3258,0,0,0,0,0,0,-0.2927,-0.2939,-0.3015,-0.3019,-0.2976,-0.3024,-0.3032,-0.3048,-0.3094,-0.3101,-0.3073,-0.3074,-0.3137,-0.3144,-0.315,-0.318,-0.3175,-0.3178,-0.318,-0.3257,-0.3257,-0.3258,0,0,0,0,0,0,-0.2925,-0.2933,-0.3012,-0.298,-0.299,-0.3026,-0.3044,-0.305,-0.3064,-0.3101,-0.3108,-0.308,-0.3138,-0.3146,-0.3176,-0.3183,-0.3179,-0.3182,-0.3257,-0.3257,-0.3258,-0.3239,0,0,0,0,0,0,-0.2922,-0.2932,-0.2941,-0.298,-0.2992,-0.3036,-0.3044,-0.3051,-0.3069,-0.3071,-0.311,-0.3117,-0.3138,-0.3171,-0.3179,-0.3187,-0.3184,-0.3256,-0.3257,-0.3257,-0.3239,-0.3239,-0.3238,0,0,0,0,0,-0.2918,-0.2934,-0.2941,-0.295,-0.3003,-0.3037,-0.3044,-0.3068,-0.3069,-0.3078,-0.3102,-0.3115,-0.318,-0.3174,-0.3183,-0.3192,-0.3256,-0.3257,-0.3257,-0.3239,-0.3239,-0.3238,0,0,0,0,0,0,-0.2896,-0.2939,-0.2948,-0.2977,-0.3003,-0.3041,-0.3054,-0.3066,-0.3093,-0.3094,-0.3123,-0.3131,-0.3159,-0.3178,-0.3171,-0.3216,-0.3219,-0.3222,-0.3202,-0.3202,-0.3202,-0.3197,-0.3187,0,0,0,0,0,-0.2894,-0.2917,-0.2954,-0.2976,-0.2988,-0.3018,-0.3034,-0.305,-0.3078,-0.309,-0.3116,-0.3143,-0.317,-0.3187,-0.3214,-0.3242,-0.3251,-0.3252,-0.3251,-0.3251,-0.3253,-0.3269,-0.327,-0.326,-0.326,-0.326,0,0,-0.2892,-0.2918,-0.2931,-0.2972,-0.2994,-0.3017,-0.3028,-0.3052,-0.307,-0.3094,-0.3124,-0.3143,-0.3176,-0.3205,-0.3219,-0.3222,-0.3257,-0.3252,-0.3251,-0.3254,-0.327,-0.3271,-0.3272,-0.326,-0.326,-0.326,0,0,-0.2899,-0.2921,-0.2941,-0.2963,-0.2995,-0.3015,-0.302,-0.3056,-0.307,-0.31,-0.3118,-0.314,-0.3186,-0.3208,-0.3225,-0.3239,-0.3253,-0.3247,-0.3246,-0.3261,-0.3262,-0.3263,-0.3268,-0.327,-0.3249,-0.3249,-0.3249,0,-0.2892,-0.2927,-0.2951,-0.2974,-0.2991,-0.3012,-0.3034,-0.3053,-0.3093,-0.3105,-0.3107,-0.3164,-0.3188,-0.3222,-0.3225,-0.3239,-0.3245,-0.3244,-0.326,-0.3261,-0.3262,-0.3267,-0.3269,-0.3248,-0.3248,-0.3248,-0.3248,0,-0.2917,-0.2941,-0.2954,-0.299,-0.3009,-0.3032,-0.3059,-0.3075,-0.3089,-0.3109,-0.3139,-0.3168,-0.32,-0.321,-0.3224,-0.3246,-0.3247,-0.3254,-0.3258,-0.3262,-0.3267,-0.327,-0.3247,-0.3247,-0.3248,-0.3248,0,0,-0.2914,-0.2962,-0.2966,-0.2983,-0.302,-0.3039,-0.3062,-0.3093,-0.3107,-0.3133,-0.3154,-0.3191,-0.3197,-0.3217,-0.3233,-0.3247,-0.3256,-0.3252,-0.3254,-0.3252,-0.3283,-0.3278,-0.328,-0.3265,-0.3265,-0.3266,-0.328,0,-0.2926,-0.2968,-0.2989,-0.3021,-0.3044,-0.3063,-0.3083,-0.3108,-0.3127,-0.315,-0.3171,-0.3197,-0.3203,-0.3215,-0.3229,-0.3252,-0.3263,-0.3251,-0.3285,-0.3286,-0.3277,-0.3283,-0.3278,-0.3291,-0.3283,-0.3283,-0.3283,0,-0.2947,-0.2972,-0.3006,-0.304,-0.305,-0.3068,-0.3097,-0.3118,-0.3147,-0.316,-0.3181,-0.3197,-0.3222,-0.3223,-0.3259,-0.325,-0.3265,-0.3278,-0.328,-0.3284,-0.3285,-0.3289,-0.3295,-0.3297,-0.3287,-0.3287,-0.3286,0,-0.2942,-0.2984,-0.301,-0.3024,-0.3063,-0.3075,-0.3092,-0.312,-0.3137,-0.3163,-0.3175,-0.3204,-0.322,-0.3242,-0.3265,-0.3264,-0.3299,-0.3302,-0.3311,-0.331,-0.3318,-0.3317,-0.3328,-0.3326,-0.3326,-0.3326,-0.3326,0,-0.2954,-0.2975,-0.3008,-0.3024,-0.3047,-0.3071,-0.3094,-0.3113,-0.3138,-0.3158,-0.3177,-0.3196,-0.3225,-0.3248,-0.3266,-0.3293,-0.33,-0.3312,-0.3317,-0.3311,-0.3309,-0.3321,-0.3321,-0.3326,-0.3326,-0.3326,-0.3326,0,-0.2953,-0.2976,-0.3006,-0.304,-0.3049,-0.3065,-0.3095,-0.3111,-0.313,-0.3156,-0.3163,-0.3193,-0.3221,-0.3246,-0.3283,-0.3296,-0.3323,-0.3329,-0.3313,-0.3316,-0.3323,-0.3322,-0.3343,-0.3347,-0.3341,-0.3341,-0.3341,0,-0.296,-0.2976,-0.3011,-0.3026,-0.3042,-0.3065,-0.3082,-0.3106,-0.3123,-0.3156,-0.3169,-0.3198,-0.3222,-0.3265,-0.3291,-0.3319,-0.3326,-0.3331,-0.3331,-0.3324,-0.3327,-0.3326,-0.3328,-0.3331,-0.3331,-0.3331,-0.3331,0,-0.297,-0.298,-0.3003,-0.303,-0.305,-0.3072,-0.3096,-0.3107,-0.3135,-0.3153,-0.3181,-0.32,-0.3237,-0.3265,-0.3296,-0.3315,-0.3328,-0.3331,-0.3335,-0.3329,-0.332,-0.3325,-0.3313,-0.3331,-0.3331,-0.3331,-0.3331,-0.3331,-0.2973,-0.2988,-0.3015,-0.3041,-0.306,-0.3081,-0.3098,-0.3119,-0.3142,-0.3173,-0.3186,-0.3214,-0.3242,-0.3285,-0.3303,-0.3326,-0.3329,-0.3334,-0.3335,-0.3336,-0.3335,-0.3315,-0.3331,-0.3332,-0.3332,-0.3332,-0.3332,0,-0.2985,-0.3003,-0.3025,-0.3057,-0.3077,-0.3086,-0.3112,-0.3128,-0.3152,-0.3176,-0.3199,-0.3231,-0.3259,-0.3286,-0.3315,-0.3328,-0.3334,-0.3335,-0.3334,-0.3338,-0.3331,-0.3325,-0.3328,-0.3328,-0.3328,-0.3328,-0.3328,-0.3328,-0.2993,-0.3019,-0.3032,-0.3068,-0.3086,-0.3113,-0.3127,-0.3146,-0.3166,-0.32,-0.3222,-0.3239,-0.3265,-0.3295,-0.3321,-0.3328,-0.3339,-0.3337,-0.3346,-0.3339,-0.3339,-0.3339,-0.3334,-0.3339,-0.3339,-0.3352,-0.3352,-0.3352]},{"header":{"parameterUnit":"m.s-1","parameterCategory":1,"la1":30.2991,"la2":30.254,"lo1":-89.0895,"lo2":-89.0444,"dy":0.0017,"dx":0.0017,"nx":28,"ny":28,"refTime":"2025-01-21T09:00:00:Z","depth":0,"parameterNumber":3,"parameterNumberName":"V-component_of_WINDS"},"data":[0,0,0,0,0,0,0,0,0,0,0,0,0,0,0,0,0,0,0,0,0,0,0,0,0,0,0,0,0,0,0,0,0,0,0,0,0,0,0,0,0,0,0,0,0,0,0,0,0,0,0,0,0,0,0,0,0,0,-1.4301,-1.4301,0,-1.4356,-1.4356,-1.4357,-1.4376,-1.4376,-1.4375,-1.4375,-1.4431,-1.4433,-1.4434,0,0,0,0,0,0,0,0,0,0,0,0,0,-1.421,-1.4212,-1.43,-1.4301,-1.4302,-1.4356,-1.4356,-1.4357,-1.4376,-1.4376,-1.4375,-1.4375,-1.443,-1.4432,-1.4434,0,0,0,0,0,0,0,0,0,0,0,0,0,-1.4256,-1.4212,-1.43,-1.4318,-1.432,-1.4355,-1.4356,-1.4357,-1.4376,-1.4376,-1.4375,-1.4375,-1.443,-1.4432,-1.4435,-1.4457,0,0,-1.4442,-1.4443,0,0,0,0,0,0,0,0,-1.4253,-1.4259,-1.4315,-1.4317,-1.4319,-1.4359,-1.4345,-1.4391,-1.4376,-1.4355,-1.4375,-1.4375,-1.4407,-1.4411,-1.4422,-1.4459,-1.4462,-1.4443,-1.4444,-1.4445,-1.4446,0,0,0,0,0,0,0,-1.425,-1.4257,-1.4322,-1.4315,-1.4318,-1.4322,-1.4328,-1.4354,-1.4382,-1.4357,-1.4358,-1.4364,-1.4408,-1.442,-1.4424,-1.4462,-1.4442,-1.4445,-1.4446,-1.4447,-1.4519,-1.452,0,0,0,0,0,0,-1.4244,-1.4254,-1.4321,-1.4324,-1.4285,-1.4324,-1.4331,-1.4346,-1.4382,-1.4387,-1.4365,-1.4365,-1.4416,-1.4421,-1.4426,-1.4454,-1.4445,-1.4447,-1.4449,-1.4519,-1.4519,-1.452,0,0,0,0,0,0,-1.4242,-1.425,-1.4318,-1.4289,-1.4298,-1.4326,-1.4343,-1.4347,-1.4359,-1.4388,-1.4393,-1.4371,-1.4416,-1.4422,-1.4449,-1.4456,-1.4449,-1.4451,-1.4518,-1.4519,-1.452,-1.451,0,0,0,0,0,0,-1.4239,-1.4249,-1.4258,-1.4289,-1.43,-1.4341,-1.4343,-1.4349,-1.4364,-1.4365,-1.4396,-1.44,-1.4416,-1.4445,-1.4451,-1.4459,-1.4453,-1.4518,-1.4519,-1.4519,-1.4509,-1.451,-1.451,0,0,0,0,0,-1.4236,-1.4253,-1.4258,-1.4266,-1.4312,-1.4341,-1.4347,-1.4365,-1.4364,-1.4373,-1.4391,-1.4399,-1.4454,-1.4447,-1.4455,-1.4464,-1.4518,-1.4519,-1.4519,-1.4509,-1.451,-1.451,0,0,0,0,0,0,-1.4221,-1.4257,-1.4264,-1.4291,-1.4313,-1.4344,-1.4356,-1.4365,-1.4387,-1.4387,-1.4408,-1.4415,-1.4439,-1.4454,-1.4446,-1.4486,-1.4486,-1.4489,-1.4476,-1.4477,-1.4477,-1.4473,-1.4455,0,0,0,0,0,-1.4221,-1.4242,-1.4272,-1.4294,-1.4304,-1.4328,-1.4342,-1.4354,-1.4377,-1.4386,-1.4406,-1.4428,-1.445,-1.4464,-1.4486,-1.4512,-1.4518,-1.4521,-1.4522,-1.4522,-1.4524,-1.4538,-1.4539,-1.4523,-1.4523,-1.4523,0,0,-1.4221,-1.4244,-1.4256,-1.4291,-1.431,-1.4331,-1.4336,-1.4358,-1.4374,-1.4389,-1.4415,-1.4431,-1.4457,-1.4483,-1.4495,-1.4496,-1.4529,-1.4523,-1.4523,-1.4525,-1.4539,-1.454,-1.4542,-1.4523,-1.4523,-1.4523,0,0,-1.4232,-1.4251,-1.4271,-1.4289,-1.4317,-1.4332,-1.4337,-1.4367,-1.4378,-1.4405,-1.4417,-1.4435,-1.4473,-1.449,-1.4504,-1.4521,-1.4529,-1.4528,-1.453,-1.4543,-1.4544,-1.4546,-1.4551,-1.4553,-1.4529,-1.4529,-1.4529,0,-1.4229,-1.4261,-1.428,-1.4302,-1.4317,-1.4332,-1.4352,-1.4368,-1.4401,-1.4411,-1.4411,-1.4459,-1.4477,-1.4507,-1.4511,-1.4522,-1.4528,-1.4524,-1.4543,-1.4544,-1.4546,-1.4551,-1.4553,-1.4529,-1.4529,-1.4529,-1.4529,0,-1.4256,-1.4278,-1.429,-1.4322,-1.4339,-1.4359,-1.4381,-1.4395,-1.4405,-1.4421,-1.4447,-1.447,-1.4496,-1.4504,-1.4514,-1.4536,-1.4535,-1.4539,-1.4539,-1.4546,-1.4552,-1.4555,-1.4529,-1.4529,-1.4529,-1.4529,0,0,-1.4259,-1.4301,-1.4305,-1.432,-1.4351,-1.4368,-1.4389,-1.4415,-1.4427,-1.4449,-1.4466,-1.4498,-1.4501,-1.4517,-1.4529,-1.4541,-1.4552,-1.4543,-1.4544,-1.4544,-1.4577,-1.4574,-1.4576,-1.4558,-1.4558,-1.4559,-1.4574,0,-1.4274,-1.4313,-1.433,-1.436,-1.4381,-1.4395,-1.4413,-1.4434,-1.4449,-1.4468,-1.4484,-1.4506,-1.4509,-1.4518,-1.4531,-1.4548,-1.4559,-1.4547,-1.4574,-1.4575,-1.4567,-1.4579,-1.4576,-1.459,-1.4577,-1.4577,-1.4578,0,-1.4297,-1.4319,-1.4352,-1.438,-1.4389,-1.4405,-1.443,-1.4449,-1.4472,-1.4482,-1.4499,-1.4511,-1.4533,-1.4531,-1.4561,-1.4553,-1.4564,-1.4575,-1.4576,-1.4579,-1.4577,-1.4583,-1.4595,-1.4597,-1.4581,-1.4581,-1.4581,0,-1.4296,-1.4334,-1.4358,-1.437,-1.4404,-1.4415,-1.4429,-1.4452,-1.4467,-1.4488,-1.4498,-1.4522,-1.4535,-1.4553,-1.457,-1.4567,-1.4598,-1.4598,-1.4607,-1.4606,-1.4613,-1.4612,-1.4627,-1.462,-1.462,-1.462,-1.462,0,-1.4311,-1.433,-1.4359,-1.4373,-1.4395,-1.4414,-1.4435,-1.4451,-1.4471,-1.4489,-1.4502,-1.4519,-1.4541,-1.456,-1.4573,-1.4596,-1.4602,-1.461,-1.4614,-1.4609,-1.4608,-1.4617,-1.4617,-1.4621,-1.4621,-1.4621,-1.4621,0,-1.4314,-1.4334,-1.4361,-1.4391,-1.4398,-1.4413,-1.4438,-1.4453,-1.4468,-1.449,-1.4497,-1.452,-1.4543,-1.4562,-1.4592,-1.4602,-1.4625,-1.4629,-1.4617,-1.4619,-1.4627,-1.4625,-1.4648,-1.4652,-1.4642,-1.4642,-1.4642,0,-1.4322,-1.4338,-1.4368,-1.4382,-1.4396,-1.4417,-1.4431,-1.4451,-1.4465,-1.4493,-1.4504,-1.4528,-1.4548,-1.4584,-1.4604,-1.4627,-1.4631,-1.4638,-1.4635,-1.463,-1.4631,-1.463,-1.4632,-1.4638,-1.4638,-1.4638,-1.4638,0,-1.4335,-1.4344,-1.4365,-1.4389,-1.4406,-1.4426,-1.4446,-1.4456,-1.4479,-1.4495,-1.4518,-1.4534,-1.4565,-1.4588,-1.4613,-1.4627,-1.4636,-1.4638,-1.4642,-1.4637,-1.463,-1.4634,-1.4618,-1.4638,-1.4638,-1.4638,-1.4638,-1.4638,-1.4341,-1.4355,-1.4379,-1.4401,-1.4419,-1.4437,-1.4452,-1.4469,-1.449,-1.4516,-1.4526,-1.455,-1.4573,-1.4607,-1.4621,-1.464,-1.4641,-1.4646,-1.4647,-1.4648,-1.4647,-1.4627,-1.4645,-1.4645,-1.4645,-1.4645,-1.4645,0,-1.4354,-1.437,-1.4391,-1.4419,-1.4436,-1.4443,-1.4466,-1.448,-1.4501,-1.4522,-1.4541,-1.4568,-1.4591,-1.4612,-1.4636,-1.4646,-1.4651,-1.4652,-1.4651,-1.4654,-1.4645,-1.464,-1.4648,-1.4648,-1.4648,-1.4648,-1.4648,-1.4648,-1.4363,-1.4387,-1.4398,-1.4431,-1.4447,-1.4471,-1.4483,-1.45,-1.4516,-1.4546,-1.4564,-1.4578,-1.4599,-1.4624,-1.4645,-1.465,-1.4658,-1.4658,-1.4665,-1.4656,-1.4655,-1.4655,-1.465,-1.466,-1.466,-1.4673,-1.4673,-1.4673]}]]